AAL567 KLAS-KLAX

Flight info

Callsign AAL567
Flight time 0h 49m
Altitude 31000
Route RADYR2 BLAQQ SHTNR ANJLL4
Aircraft B738/M-SDE2E3FGHIRWXY/LB1

Departure

Time 2026-05-04 03:34
Airport Harry Reid International Airport (KLAS)

Arrival

Time 2026-05-04 04:23
Airport Los Angeles International Airport (KLAX)
Time Latitude Longitude Altitude Speed Heading
2026-05-04 03:08 36.08025 -115.14068 2114 ft 0 kts 95°
2026-05-04 03:20 36.08026 -115.14072 2099 ft 2 kts 95°
2026-05-04 03:20 36.08027 -115.14092 2102 ft 2 kts 96°
2026-05-04 03:20 36.08029 -115.14112 2102 ft 2 kts 97°
2026-05-04 03:21 36.08033 -115.14132 2103 ft 2 kts 127°
2026-05-04 03:21 36.08042 -115.14142 2102 ft 0 kts 159°
2026-05-04 03:25 36.08034 -115.14140 2101 ft 7 kts 170°
2026-05-04 03:25 36.07945 -115.14140 2104 ft 16 kts 188°
2026-05-04 03:26 36.07847 -115.14114 2103 ft 15 kts 115°
2026-05-04 03:26 36.07831 -115.14022 2102 ft 10 kts 95°
2026-05-04 03:26 36.07830 -115.13966 2101 ft 8 kts 89°
2026-05-04 03:26 36.07828 -115.13901 2101 ft 8 kts 96°
2026-05-04 03:27 36.07821 -115.13841 2098 ft 9 kts 89°
2026-05-04 03:27 36.07825 -115.13765 2094 ft 18 kts 88°
2026-05-04 03:27 36.07826 -115.13598 2088 ft 16 kts 90°
2026-05-04 03:27 36.07828 -115.13485 2085 ft 10 kts 90°
2026-05-04 03:28 36.07828 -115.13397 2082 ft 5 kts 90°
2026-05-04 03:28 36.07827 -115.13330 2078 ft 12 kts 90°
2026-05-04 03:28 36.07827 -115.13214 2070 ft 17 kts 90°
2026-05-04 03:28 36.07828 -115.13035 2061 ft 19 kts 90°
2026-05-04 03:29 36.07827 -115.12874 2054 ft 20 kts 91°
2026-05-04 03:29 36.07827 -115.12701 2043 ft 19 kts 90°
2026-05-04 03:29 36.07826 -115.12541 2038 ft 13 kts 90°
2026-05-04 03:29 36.07825 -115.12426 2036 ft 14 kts 90°
2026-05-04 03:30 36.07824 -115.12303 2036 ft 8 kts 101°
2026-05-04 03:30 36.07794 -115.12263 2033 ft 7 kts 154°
2026-05-04 03:30 36.07758 -115.12247 2038 ft 0 kts 162°
2026-05-04 03:32 36.07753 -115.12246 2033 ft 3 kts 165°
2026-05-04 03:32 36.07746 -115.12243 2032 ft 0 kts 165°
2026-05-04 03:33 36.07745 -115.12243 2032 ft 0 kts 165°
2026-05-04 03:33 36.07687 -115.12245 2035 ft 16 kts 199°
2026-05-04 03:33 36.07643 -115.12416 2035 ft 39 kts 270°
2026-05-04 03:33 36.07638 -115.13122 2067 ft 122 kts 270°
2026-05-04 03:34 36.07632 -115.14456 2194 ft 184 kts 268°
2026-05-04 03:34 36.07821 -115.16087 3121 ft 193 kts 279°
2026-05-04 03:34 36.07925 -115.17724 4173 ft 190 kts 265°
2026-05-04 03:34 36.07905 -115.19353 5196 ft 188 kts 267°
2026-05-04 03:35 36.07771 -115.20961 6154 ft 189 kts 257°
2026-05-04 03:35 36.07528 -115.22578 7022 ft 193 kts 257°
2026-05-04 03:35 36.07192 -115.24191 7683 ft 197 kts 235°
2026-05-04 03:35 36.06368 -115.25432 8532 ft 181 kts 225°
2026-05-04 03:36 36.05447 -115.26434 9333 ft 174 kts 212°
2026-05-04 03:36 36.04314 -115.27121 9709 ft 187 kts 201°
2026-05-04 03:36 36.03046 -115.27703 10032 ft 199 kts 199°
2026-05-04 03:36 36.01708 -115.28303 10373 ft 211 kts 198°
2026-05-04 03:37 36.00296 -115.28952 10738 ft 222 kts 200°
2026-05-04 03:37 35.98790 -115.29591 11075 ft 235 kts 194°
2026-05-04 03:37 35.97171 -115.30029 11421 ft 248 kts 191°
2026-05-04 03:37 35.95423 -115.30434 11728 ft 263 kts 190°
2026-05-04 03:38 35.93614 -115.30851 12023 ft 264 kts 190°
2026-05-04 03:38 35.91777 -115.31286 12382 ft 276 kts 191°
2026-05-04 03:38 35.89845 -115.31752 12742 ft 286 kts 191°
2026-05-04 03:38 35.87885 -115.32231 13037 ft 287 kts 191°
2026-05-04 03:39 35.85920 -115.32715 13032 ft 288 kts 191°
2026-05-04 03:39 35.83966 -115.33197 13031 ft 285 kts 191°
2026-05-04 03:39 35.82017 -115.33677 13045 ft 286 kts 191°
2026-05-04 03:39 35.80071 -115.34153 13047 ft 286 kts 191°
2026-05-04 03:40 35.78109 -115.34632 13048 ft 286 kts 191°
2026-05-04 03:40 35.76185 -115.35101 13051 ft 286 kts 191°
2026-05-04 03:40 35.74231 -115.35577 13055 ft 286 kts 191°
2026-05-04 03:40 35.72282 -115.36050 13219 ft 284 kts 190°
2026-05-04 03:41 35.70348 -115.36520 13511 ft 284 kts 191°
2026-05-04 03:41 35.68393 -115.36993 13790 ft 288 kts 191°
2026-05-04 03:41 35.66401 -115.37474 14059 ft 295 kts 191°
2026-05-04 03:41 35.64399 -115.37954 14389 ft 291 kts 191°
2026-05-04 03:42 35.62404 -115.38430 14752 ft 293 kts 191°
2026-05-04 03:42 35.60383 -115.38805 15107 ft 294 kts 183°
2026-05-04 03:42 35.58331 -115.38717 15484 ft 296 kts 177°
2026-05-04 03:42 35.56277 -115.38476 15851 ft 298 kts 177°
2026-05-04 03:43 35.54202 -115.38236 16231 ft 300 kts 178°
2026-05-04 03:43 35.52109 -115.38030 16613 ft 303 kts 179°
2026-05-04 03:43 35.49997 -115.37844 16991 ft 305 kts 180°
2026-05-04 03:43 35.47843 -115.37652 17409 ft 317 kts 180°
2026-05-04 03:44 35.45597 -115.37459 17813 ft 329 kts 183°
2026-05-04 03:44 35.43355 -115.37952 18194 ft 330 kts 207°
2026-05-04 03:44 35.41298 -115.39197 18567 ft 331 kts 210°
2026-05-04 03:44 35.39249 -115.40459 18909 ft 328 kts 210°
2026-05-04 03:45 35.37206 -115.41722 19260 ft 327 kts 211°
2026-05-04 03:45 35.35204 -115.42971 19601 ft 326 kts 211°
2026-05-04 03:45 35.33185 -115.44234 19955 ft 325 kts 211°
2026-05-04 03:45 35.31174 -115.45501 20308 ft 324 kts 212°
2026-05-04 03:46 35.29184 -115.46772 20680 ft 323 kts 213°
2026-05-04 03:46 35.27203 -115.48066 21049 ft 322 kts 213°
2026-05-04 03:46 35.25204 -115.49339 21422 ft 323 kts 213°
2026-05-04 03:46 35.23212 -115.50610 21804 ft 324 kts 213°
2026-05-04 03:47 35.21212 -115.51908 22189 ft 325 kts 213°
2026-05-04 03:47 35.19198 -115.53193 22580 ft 327 kts 213°
2026-05-04 03:47 35.17187 -115.54438 22966 ft 329 kts 213°
2026-05-04 03:47 35.15101 -115.55640 23374 ft 336 kts 208°
2026-05-04 03:48 35.12801 -115.56429 23715 ft 352 kts 197°
2026-05-04 03:48 35.10311 -115.56655 24053 ft 366 kts 187°
2026-05-04 03:48 35.07739 -115.56129 24386 ft 385 kts 172°
2026-05-04 03:48 35.05196 -115.55013 24735 ft 392 kts 168°
2026-05-04 03:49 35.02642 -115.53818 25076 ft 390 kts 172°
2026-05-04 03:49 35.00055 -115.53442 25399 ft 363 kts 197°
2026-05-04 03:49 34.97772 -115.54406 25863 ft 338 kts 220°
2026-05-04 03:49 34.96107 -115.56346 26358 ft 330 kts 235°
2026-05-04 03:50 34.94804 -115.58648 26820 ft 331 kts 239°
2026-05-04 03:50 34.93469 -115.60959 27302 ft 334 kts 237°
2026-05-04 03:50 34.92084 -115.63187 27779 ft 334 kts 236°
2026-05-04 03:50 34.90675 -115.65419 28260 ft 331 kts 236°
2026-05-04 03:51 34.89284 -115.67639 28756 ft 328 kts 236°
2026-05-04 03:51 34.87914 -115.69855 29256 ft 325 kts 237°
2026-05-04 03:51 34.86574 -115.72052 29772 ft 322 kts 237°
2026-05-04 03:51 34.85246 -115.74243 30224 ft 319 kts 238°
2026-05-04 03:52 34.83939 -115.76398 30666 ft 314 kts 238°
2026-05-04 03:52 34.81375 -115.80602 30796 ft 305 kts 238°
2026-05-04 03:53 34.78844 -115.84796 30793 ft 309 kts 239°
2026-05-04 03:53 34.76324 -115.89016 30802 ft 308 kts 239°
2026-05-04 03:54 34.73799 -115.93255 30809 ft 315 kts 239°
2026-05-04 03:54 34.71165 -115.97719 30807 ft 334 kts 239°
2026-05-04 03:55 34.68394 -116.02424 30799 ft 347 kts 238°
2026-05-04 03:55 34.65578 -116.07171 30788 ft 346 kts 238°
2026-05-04 03:56 34.62767 -116.11880 30790 ft 345 kts 238°
2026-05-04 03:56 34.59965 -116.16570 30807 ft 341 kts 238°
2026-05-04 03:57 34.57196 -116.21209 30816 ft 338 kts 238°
2026-05-04 03:57 34.54442 -116.25823 30833 ft 335 kts 239°
2026-05-04 03:58 34.50518 -116.32484 30788 ft 320 kts 239°
2026-05-04 03:58 34.49203 -116.34704 30577 ft 326 kts 239°
2026-05-04 03:58 34.47887 -116.36942 30328 ft 326 kts 239°
2026-05-04 03:59 34.46603 -116.39156 30047 ft 324 kts 239°
2026-05-04 03:59 34.45307 -116.41377 29738 ft 325 kts 238°
2026-05-04 03:59 34.43949 -116.43650 29388 ft 340 kts 237°
2026-05-04 03:59 34.42516 -116.46002 29088 ft 353 kts 237°
2026-05-04 04:00 34.41156 -116.48489 28750 ft 354 kts 246°
2026-05-04 04:00 34.40134 -116.51190 28444 ft 351 kts 246°
2026-05-04 04:00 34.39080 -116.53844 28106 ft 348 kts 245°
2026-05-04 04:00 34.38011 -116.56466 27782 ft 347 kts 245°
2026-05-04 04:01 34.36940 -116.59082 27466 ft 346 kts 245°
2026-05-04 04:01 34.35877 -116.61683 27166 ft 345 kts 245°
2026-05-04 04:01 34.34807 -116.64286 26847 ft 344 kts 244°
2026-05-04 04:01 34.33731 -116.66881 26565 ft 345 kts 244°
2026-05-04 04:02 34.32660 -116.69490 26275 ft 346 kts 244°
2026-05-04 04:02 34.31598 -116.72103 25979 ft 346 kts 245°
2026-05-04 04:02 34.30553 -116.74696 25707 ft 346 kts 244°
2026-05-04 04:02 34.29506 -116.77320 25420 ft 348 kts 245°
2026-05-04 04:03 34.28453 -116.79968 25147 ft 349 kts 245°
2026-05-04 04:03 34.27403 -116.82601 24870 ft 349 kts 245°
2026-05-04 04:03 34.26343 -116.85257 24607 ft 349 kts 244°
2026-05-04 04:03 34.25284 -116.87906 24350 ft 349 kts 244°
2026-05-04 04:04 34.24228 -116.90545 24099 ft 349 kts 244°
2026-05-04 04:04 34.23167 -116.93178 23844 ft 348 kts 244°
2026-05-04 04:04 34.22104 -116.95807 23590 ft 347 kts 244°
2026-05-04 04:04 34.21054 -116.98433 23309 ft 347 kts 246°
2026-05-04 04:05 34.20214 -117.01162 23006 ft 347 kts 251°
2026-05-04 04:05 34.19517 -117.03960 22585 ft 349 kts 252°
2026-05-04 04:05 34.18830 -117.06765 22095 ft 346 kts 252°
2026-05-04 04:05 34.18122 -117.09493 21528 ft 337 kts 251°
2026-05-04 04:06 34.17406 -117.12166 20992 ft 330 kts 251°
2026-05-04 04:06 34.16704 -117.14768 20452 ft 322 kts 251°
2026-05-04 04:06 34.16012 -117.17314 19952 ft 315 kts 251°
2026-05-04 04:06 34.15332 -117.19805 19386 ft 311 kts 251°
2026-05-04 04:07 34.14654 -117.22261 18888 ft 306 kts 251°
2026-05-04 04:07 34.13983 -117.24684 18379 ft 303 kts 251°
2026-05-04 04:07 34.13318 -117.27075 17798 ft 299 kts 250°
2026-05-04 04:07 34.12663 -117.29449 17177 ft 297 kts 250°
2026-05-04 04:08 34.12017 -117.31810 16484 ft 296 kts 250°
2026-05-04 04:08 34.11376 -117.34174 15791 ft 296 kts 250°
2026-05-04 04:08 34.10752 -117.36507 15119 ft 296 kts 250°
2026-05-04 04:08 34.10134 -117.38881 14502 ft 296 kts 251°
2026-05-04 04:09 34.09561 -117.41217 14263 ft 286 kts 251°
2026-05-04 04:09 34.08997 -117.43531 14170 ft 288 kts 251°
2026-05-04 04:09 34.08615 -117.45091 14095 ft 288 kts 251°
2026-05-04 04:09 34.08049 -117.47409 14025 ft 287 kts 251°
2026-05-04 04:10 34.07494 -117.49691 14004 ft 286 kts 249°
2026-05-04 04:10 34.06770 -117.51921 14006 ft 285 kts 244°
2026-05-04 04:10 34.05973 -117.54108 14003 ft 285 kts 244°
2026-05-04 04:10 34.05159 -117.56289 13999 ft 285 kts 243°
2026-05-04 04:11 34.04340 -117.58474 14000 ft 286 kts 244°
2026-05-04 04:11 34.03526 -117.60674 13834 ft 288 kts 244°
2026-05-04 04:11 34.02724 -117.62889 13539 ft 286 kts 244°
2026-05-04 04:11 34.01952 -117.65056 13250 ft 276 kts 244°
2026-05-04 04:12 34.01226 -117.67125 12957 ft 266 kts 245°
2026-05-04 04:12 34.00563 -117.69183 12507 ft 264 kts 255°
2026-05-04 04:12 34.00376 -117.71361 12223 ft 257 kts 263°
2026-05-04 04:12 34.00261 -117.73494 11859 ft 253 kts 262°
2026-05-04 04:13 34.00120 -117.75589 11432 ft 250 kts 261°
2026-05-04 04:13 33.99935 -117.77662 11043 ft 248 kts 260°
2026-05-04 04:13 33.99741 -117.79720 10657 ft 245 kts 260°
2026-05-04 04:13 33.99559 -117.81760 10280 ft 244 kts 261°
2026-05-04 04:14 33.99356 -117.83779 9904 ft 241 kts 259°
2026-05-04 04:14 33.99142 -117.85762 9513 ft 235 kts 260°
2026-05-04 04:14 33.98948 -117.87701 9030 ft 231 kts 261°
2026-05-04 04:14 33.98776 -117.89582 8570 ft 228 kts 261°
2026-05-04 04:15 33.98589 -117.91470 8114 ft 225 kts 261°
2026-05-04 04:15 33.98390 -117.93328 7669 ft 222 kts 261°
2026-05-04 04:15 33.98193 -117.95160 7229 ft 221 kts 261°
2026-05-04 04:15 33.97981 -117.97012 6790 ft 225 kts 261°
2026-05-04 04:16 33.97768 -117.98907 6334 ft 230 kts 261°
2026-05-04 04:16 33.97561 -118.00822 5883 ft 232 kts 262°
2026-05-04 04:16 33.97393 -118.02764 5438 ft 234 kts 263°
2026-05-04 04:16 33.97228 -118.04725 5059 ft 233 kts 262°
2026-05-04 04:17 33.97045 -118.06618 4937 ft 225 kts 262°
2026-05-04 04:17 33.96851 -118.08490 4625 ft 226 kts 262°
2026-05-04 04:17 33.96648 -118.10398 4135 ft 231 kts 262°
2026-05-04 04:17 33.96442 -118.12313 3714 ft 229 kts 262°
2026-05-04 04:18 33.96246 -118.14148 3606 ft 210 kts 262°
2026-05-04 04:18 33.96073 -118.15803 3575 ft 189 kts 262°
2026-05-04 04:18 33.95912 -118.17350 3533 ft 185 kts 262°
2026-05-04 04:18 33.95747 -118.18907 3322 ft 189 kts 262°
2026-05-04 04:19 33.95579 -118.20477 3073 ft 187 kts 262°
2026-05-04 04:19 33.95421 -118.21978 2831 ft 174 kts 262°
2026-05-04 04:19 33.95276 -118.23346 2610 ft 158 kts 263°
2026-05-04 04:19 33.95143 -118.24581 2413 ft 142 kts 263°
2026-05-04 04:20 33.95019 -118.25734 2209 ft 137 kts 263°
2026-05-04 04:20 33.94903 -118.26861 2051 ft 136 kts 263°
2026-05-04 04:20 33.94789 -118.28011 1865 ft 140 kts 263°
2026-05-04 04:20 33.94667 -118.29165 1676 ft 138 kts 263°
2026-05-04 04:21 33.94546 -118.30310 1482 ft 138 kts 263°
2026-05-04 04:21 33.94422 -118.31458 1296 ft 138 kts 264°
2026-05-04 04:21 33.94310 -118.32598 1107 ft 137 kts 264°
2026-05-04 04:21 33.94198 -118.33744 909 ft 141 kts 263°
2026-05-04 04:22 33.94081 -118.34916 700 ft 139 kts 263°
2026-05-04 04:22 33.93959 -118.36066 522 ft 138 kts 262°
2026-05-04 04:22 33.93837 -118.37222 337 ft 142 kts 262°
2026-05-04 04:22 33.93728 -118.38395 142 ft 138 kts 262°
2026-05-04 04:23 33.93621 -118.39379 122 ft 89 kts 264°
2026-05-04 04:23 33.93574 -118.39883 122 ft 50 kts 263°
2026-05-04 04:23 33.93590 -118.40239 124 ft 34 kts 288°
2026-05-04 04:23 33.93622 -118.40358 124 ft 1 kts 285°
2026-05-04 04:24 33.93623 -118.40361 124 ft 0 kts 288°
2026-05-04 04:24 33.93624 -118.40377 123 ft 10 kts 275°
2026-05-04 04:24 33.93612 -118.40526 122 ft 24 kts 269°
2026-05-04 04:25 33.93596 -118.40731 124 ft 24 kts 269°
2026-05-04 04:25 33.93636 -118.40903 124 ft 22 kts 313°
2026-05-04 04:25 33.93663 -118.40915 123 ft 5 kts
2026-05-04 04:25 33.93748 -118.40916 122 ft 17 kts 355°
2026-05-04 04:26 33.93843 -118.40956 122 ft 10 kts 308°
2026-05-04 04:26 33.93854 -118.41034 125 ft 10 kts 266°
2026-05-04 04:26 33.93849 -118.41113 125 ft 9 kts 273°
2026-05-04 04:26 33.93872 -118.41177 122 ft 8 kts 307°
2026-05-04 04:27 33.93916 -118.41211 122 ft 7 kts 336°
2026-05-04 04:27 33.93962 -118.41223 122 ft 6 kts 360°
2026-05-04 04:27 33.94000 -118.41206 125 ft 6 kts 43°
2026-05-04 04:27 33.94013 -118.41167 124 ft 5 kts 79°
2026-05-04 04:28 33.94018 -118.41131 125 ft 4 kts 81°
2026-05-04 04:28 33.94023 -118.41097 125 ft 4 kts 80°
2026-05-04 04:28 33.94023 -118.41094 125 ft 0 kts 81°